TimeEDT,TemperatureF,Dew PointF,Humidity,Sea Level PressureIn,VisibilityMPH,Wind Direction,Wind SpeedMPH,Gust SpeedMPH,PrecipitationIn,Events,Conditions,WindDirDegrees,DateUTC
12:58 AM,63.9,58.1,81,29.95,10.0,ESE,4.6,-,N/A,,Clear,120,2013-03-22 04:58:00
1:58 AM,63.9,58.1,81,29.94,10.0,ESE,4.6,-,N/A,,Clear,110,2013-03-22 05:58:00
2:58 AM,65.1,58.1,78,29.93,10.0,East,3.5,-,N/A,,Clear,100,2013-03-22 06:58:00
3:58 AM,64.9,58.1,78,29.91,10.0,ESE,4.6,-,N/A,,Clear,120,2013-03-22 07:58:00
4:58 AM,65.5,59.4,81,29.92,10.0,ESE,4.6,-,N/A,,Partly Cloudy,110,2013-03-22 08:58:00
5:58 AM,68.4,61.3,78,29.93,10.0,ESE,4.6,-,N/A,,Overcast,120,2013-03-22 09:58:00
6:38 AM,69.8,62.6,78,29.93,10.0,ESE,4.6,-,N/A,,Mostly Cloudy,120,2013-03-22 10:38:00
6:58 AM,70.0,62.4,77,29.94,10.0,SE,5.8,-,N/A,,Overcast,130,2013-03-22 10:58:00
7:28 AM,69.8,62.6,78,29.94,10.0,ESE,8.1,-,N/A,,Mostly Cloudy,110,2013-03-22 11:28:00
7:58 AM,70.5,63.0,77,29.96,10.0,ESE,6.9,-,N/A,,Mostly Cloudy,120,2013-03-22 11:58:00
8:03 AM,71.6,62.6,73,29.96,10.0,ESE,5.8,-,N/A,,Mostly Cloudy,120,2013-03-22 12:03:00
8:08 AM,71.6,62.6,73,29.96,10.0,ESE,5.8,-,N/A,,Mostly Cloudy,120,2013-03-22 12:08:00
8:58 AM,73.0,64.0,73,29.98,10.0,ESE,11.5,-,N/A,,Clear,120,2013-03-22 12:58:00
9:48 AM,75.2,64.4,69,29.99,10.0,ESE,12.7,-,N/A,,Mostly Cloudy,120,2013-03-22 13:48:00
9:58 AM,74.5,64.9,72,30.00,10.0,ESE,12.7,-,N/A,,Mostly Cloudy,120,2013-03-22 13:58:00
10:58 AM,74.1,65.5,74,30.02,10.0,ESE,9.2,-,N/A,,Mostly Cloudy,110,2013-03-22 14:58:00
11:58 AM,75.7,66.6,73,30.02,10.0,SE,11.5,-,N/A,,Scattered Clouds,130,2013-03-22 15:58:00
12:18 PM,75.2,66.2,73,30.01,10.0,SE,12.7,-,N/A,,Mostly Cloudy,130,2013-03-22 16:18:00
12:23 PM,75.2,66.2,73,30.01,10.0,SE,12.7,-,N/A,,Mostly Cloudy,130,2013-03-22 16:23:00
12:53 PM,75.2,66.2,73,30.00,10.0,ESE,13.8,-,N/A,,Mostly Cloudy,110,2013-03-22 16:53:00
12:58 PM,75.9,66.4,72,30.01,10.0,SE,12.7,-,N/A,,Mostly Cloudy,130,2013-03-22 16:58:00
1:58 PM,77.2,67.3,71,29.98,10.0,SE,13.8,20.7,N/A,,Mostly Cloudy,140,2013-03-22 17:58:00
2:58 PM,75.7,67.8,76,29.96,10.0,SE,11.5,-,N/A,,Mostly Cloudy,130,2013-03-22 18:58:00
3:58 PM,75.9,68.4,77,29.95,10.0,SSE,11.5,-,N/A,,Mostly Cloudy,150,2013-03-22 19:58:00
4:26 PM,77.0,68.0,74,29.93,10.0,SSE,15.0,-,N/A,,Scattered Clouds,150,2013-03-22 20:26:00
4:58 PM,77.7,69.1,75,29.94,10.0,SE,13.8,21.9,N/A,,Scattered Clouds,140,2013-03-22 20:58:00
5:13 PM,77.0,69.8,78,29.93,10.0,SSE,13.8,-,N/A,,Mostly Cloudy,160,2013-03-22 21:13:00
5:23 PM,77.0,69.8,78,29.93,10.0,SSE,15.0,-,N/A,,Mostly Cloudy,160,2013-03-22 21:23:00
5:56 PM,77.0,69.8,78,29.93,10.0,South,12.7,-,N/A,,Partly Cloudy,170,2013-03-22 21:56:00
5:58 PM,77.0,69.4,77,29.94,10.0,South,10.4,-,N/A,,Partly Cloudy,170,2013-03-22 21:58:00
6:58 PM,75.9,69.6,81,29.95,10.0,SSE,10.4,18.4,N/A,,Clear,160,2013-03-22 22:58:00
7:58 PM,73.4,69.6,88,29.96,10.0,SE,5.8,-,N/A,,Partly Cloudy,140,2013-03-22 23:58:00
8:58 PM,72.7,70.0,91,29.98,10.0,SE,5.8,-,N/A,,Partly Cloudy,140,2013-03-23 00:58:00
9:58 PM,72.1,70.0,93,30.00,10.0,SSE,3.5,-,N/A,,Partly Cloudy,150,2013-03-23 01:58:00
10:58 PM,71.6,70.2,95,30.01,10.0,SSE,8.1,-,N/A,,Clear,160,2013-03-23 02:58:00
11:58 PM,72.7,71.2,95,30.00,10.0,South,9.2,-,N/A,,Clear,170,2013-03-23 03:58:00